YAOGAN-3

Last updated on Sat Apr 26 2025 00:02:25 GMT+0000 (Coordinated Universal Time)

1 32289U 07055A 25115.60062096 .00003888 00000+0 42385-3 0 9995 2 32289 97.8568 144.1886 0001634 83.4352 276.7051 14.88540747943697
UTC large
Height (km)
Speed (km/s)
/
Latitude / Longitude
Inclination (degrees)
Orbital Period (minutes)
Azimuth
Elevation
Range (km)
Doppler Factor

Next 0 passes for location: London (51.5072 / 0.1276)

Sorry there are no passes over London.